Regional Weather Roundup
Issued by NWS

Home | Current Version | Previous Version | Text Only | Print | Product List | Glossary On
Versions: 1 2 3 4 5 6 7 8 9 10 11 12 13 14 15 16 17 18 19 20 21 22 23 24 25 26 27 28 29 30 31 32 33 34 35 36 37 38 39 40 41 42 43 44 45 46 47 48 49 50
496
ASUS43 KTOP 112008
RWRKS

WEATHER ROUNDUP FOR KANSAS
NATIONAL WEATHER SERVICE GOODLAND KS
200 PM CST MON DEC 11 2017

NOTE:  "FAIR" INDICATES FEW OR NO CLOUDS BELOW 12,000 FEET WITH NO
SIGNIFICANT WEATHER AND/OR OBSTRUCTIONS TO VISIBILITY.

KSZ001>006-013>018-027>032-041>047-112100-
NORTHWEST KANSAS

CITY           SKY/WX    TMP DP  RH WIND       PRES   REMARKS
GOODLAND       SUNNY     58   9  14 N32G47    30.24S
HAYS           CLOUDY    61  13  15 NW29G36   30.15F
HILL CITY      CLOUDY    57  13  17 NW20G32   30.18F
RUSSELL        CLOUDY    59  13  16 NW28G37   30.14S
$$

KSZ061>065-074>080-084>089-112100-
SOUTHWEST KANSAS

CITY           SKY/WX    TMP DP  RH WIND       PRES   REMARKS
DODGE CITY     SUNNY     64  14  14 NW20G39   30.18F
ELKHART        SUNNY     64  22  20 N18G26    30.26F
GARDEN CITY    SUNNY     64  11  12 N26G36    30.21F
GREAT BEND     SUNNY     61  16  17 NW22G30   30.14F
LIBERAL        SUNNY     65  16  15 N21       30.22
PRATT          SUNNY     64  13  13 NW20G26   30.15S
$$

KSZ066>073-081>083-090>101-112100-
SOUTHEAST KANSAS

CITY           SKY/WX    TMP DP  RH WIND       PRES   REMARKS
CHANUTE        CLOUDY    60  14  16 NW23G31   30.03R
COFFEYVILLE    SUNNY     69  17  13 NW23G31   30.02F
HUTCHINSON     SUNNY     64  16  15 NW28G40   30.10F
MEDICINE LODGE   N/A     65  17  15 N16G29    30.13F
NEWTON         PTSUNNY   61  15  16 NW36G41   30.08F
PARSONS        MOSUNNY   65  12  12 NW18G31   30.03S
WICHITA INTL   MOSUNNY   66  15  14 N24G37    30.08F
WICHITA JABRA  MOSUNNY   61  14  16 NW28G40   30.08F
WICHITA MCCONL MOSUNNY   65  13  13 N21G36    30.07F
WINFIELD       SUNNY     67  15  13 NW23G33   30.08F
$$

KSZ007>012-019>026-033>040-048>060-102>105-112100-
NORTHEAST KANSAS

CITY           SKY/WX    TMP DP  RH WIND       PRES   REMARKS
CONCORDIA      MOSUNNY   53  26  35 NW30G39   30.12R
EMPORIA        CLOUDY    57  18  21 NW24G37   30.03F
LAWRENCE       SUNNY     57  25  29 NW28G38   30.00S
MANHATTAN      SUNNY     54  25  32 N15G30    30.09R
MARYSVILLE     CLOUDY    50  28  43 N26G35    30.07R
OLATHE IND     SUNNY     56  24  29 NW23G38   30.00R
OLATHE EXE     SUNNY     54  24  31 NW26G38   29.98R
SALINA         MOSUNNY   59  19  21 NW25G35   30.11S
TOPEKA BILLARD CLOUDY    56  27  32 NW28G36   30.03R
TOPEKA FORBES  MOSUNNY   56  26  31 NW32G44   30.02R
$$




USA.gov is the U.S. government's official web portal to all federal, state and local government web resources and services.